Weather Service Report


592 
ASUS41 KGYX 232010
RWRGYX
WEATHER ROUNDUP FOR MAINE AND NEW HAMPSHIRE
NATIONAL WEATHER SERVICE GRAY ME
300 PM EST SUN NOV 23 2014

MEZ002-005-006-010-012-015-018-020-021-024-026-027-029-232100-
MAINE
  
CITY           SKY/WX    TMP DP  RH WIND       PRES   REMARKS
PORTLAND       PTCLDY    56  40  55 W8        30.09R                  
SANFORD        CLOUDY    55  37  50 SW7       30.09R                  
BAR HARBOR     CLOUDY    52  39  62 S6        30.09R                  
WISCASSET      CLEAR     53  39  59 S3        30.09R                  
ROCKLAND       CLEAR     52  39  62 SW5       30.07S                  
FRYEBURG       PTCLDY    51  39  63 W6        30.07R                  
LEWISTONAUBURN CLEAR     54  39  58 S7        30.07S                  
AUGUSTA        MOCLDY    51  36  56 CALM      30.08R                  
WATERVILLE     CLOUDY    48  36  61 W5        30.05S                  
BANGOR         CLOUDY    47  33  58 N3        30.09R                  
GREENVILLE       N/A     39  34  82 CALM      30.03R                  
MILLINOCKET    CLOUDY    41  33  73 CALM      30.08R                  
HOULTON        CLOUDY    40  31  70 S3        30.04R                  
PRESQUE ISLE   CLOUDY    41  28  60 SW6       30.03R                  
FRENCHVILLE    CLOUDY    36  29  75 W3        30.00R                  
CARIBOU        CLOUDY    39  29  67 SW6       30.02R                  
$$

NHZ002-005-008-009-011-012-014-232100-
NEW HAMPSHIRE
  
CITY           SKY/WX    TMP DP  RH WIND       PRES   REMARKS
PORTSMOUTH     MOSUNNY   58  40  51 W6        30.07S                  
ROCHESTER      SUNNY     56  40  55 VRB5      30.08R                  
NASHUA         SUNNY     58  39  49 W6        30.10S                  
MANCHESTER     MOSUNNY   57  38  48 SW7       30.08R                  
CONCORD        MOSUNNY   56  39  53 W5        30.08S                  
LACONIA        MOSUNNY   54  39  58 SW3       30.07S                  
PLYMOUTH       FAIR      51  44  77 CALM      30.08R                  
BERLIN         CLOUDY    40  37  89 N3        30.06R                  
WHITEFIELD     CLOUDY    48  39  71 CALM      30.06S                  
JAFFREY        SUNNY     54  38  54 SW8       30.10S                  
LEBANON        SUNNY     53  41  63 CALM      30.07S                  
MT WASHINGTON  FOG       27  27 100 W49         N/A  VSB 0   WCI   7  
$$

VTZ005-007-008-232100-
VERMONT
  
CITY           SKY/WX    TMP DP  RH WIND       PRES   REMARKS
ST JOHNSBURY     N/A     43  39  86 MISG      30.05S                  
MONTPELIER     SUNNY     49  40  71 S6        30.08S                  
BURLINGTON     PTSUNNY   52  39  61 S8        30.04F                  
$$

MAZ007-012-024-CTZ003-RIZ002-NYZ038-NYZ072-232100-
SOUTHERN NEW ENGLAND AND NY
  
CITY           SKY/WX    TMP DP  RH WIND       PRES   REMARKS
BOSTON         PTSUNNY   58  38  47 SW5       30.11R                  
WORCESTER      MOSUNNY   55  37  50 W6        30.10F                  
NANTUCKET      SUNNY     55  44  66 SW16      30.17R                  
PROVIDENCE     PTSUNNY   56  35  45 SE6       30.13S                  
HARTFORD       PTSUNNY   59  27  29 SE9       30.09F                  
ALBANY         PTSUNNY   53  28  38 SE3       30.07F                  
NEW YORK CITY  PTSUNNY   55  24  30 SW8       30.14S                  
$$

ANZ081-ANZ082-ANZ150-NHZ014-MEZ023>029-232100-
COASTAL MARINE OBSERVATIONS
  
STATION/POSITION TIME  TEMP    WIND        PRES    WAVE
                       AIR SEA DIR/SP/G            HT/PER
                 (UTC) (F)     (DEG/KT/KT) (MB)    (FT/S)
MOUNT DESERT ROC 2000   50                 1018.7R
MATINICUS ROCK   2000          260/ 11/ 12 1018.5R
PORTLAND WX BUOY 1950   51 51  190/ 12/ 16 1018.4R   3/ 6
WELLS            1900   57 46  220/  6/  9 1017.5R
ISLE OF SHOALS   2000   55     190/  8/  8 1018.3R
JEFFREYS LEDGE   1921      51                N/A     3/ 5
CASHES LEDGE BUO 1950   51 51  240/ 14/ 17 1018.8R   6/ 6
$$

.............KEY..............
   WCI - WIND CHILL
   TC  - TEMPERATURE IN CELSIUS
   VSB - VISIBILITY IN MILES
   HX  - HEAT INDEX
   FAIR- INDICATES FEW OR NO CLOUDS BELOW 12,000 FT, WITH NO 
         SIGNIFICANT WEATHER AND/OR OBSTRUCTIONS TO VISIBILITY.



Return to Home page


Western Regional Climate Center, wrcc@dri.edu